Regional Weather Roundup
Issued by NWS

Home | Current Version | Previous Version | Graphics & Text | Print | Product List | Glossary On
Versions: 1 2 3 4 5 6 7 8 9 10 11 12 13 14 15 16 17 18 19 20 21 22 23 24 25 26 27 28 29 30 31 32 33 34 35 36 37 38 39 40 41 42 43 44 45 46 47 48 49 50
000
ASUS43 KMKX 301111
RWRWI

WISCONSIN REGIONAL WEATHER ROUNDUP
NATIONAL WEATHER SERVICE MILWAUKEE/SULLIVAN WI
600 AM CDT THU MAR 30 2017

NOTE: "FAIR" INDICATES FEW OR NO CLOUDS BELOW 12,000 FEET WITH NO
SIGNIFICANT WEATHER AND/OR OBSTRUCTIONS TO VISIBILITY.

WIZ001-002-006>008-014>016-023>028-301200-
NORTHWEST WISCONSIN

CITY           SKY/WX    TMP DP  RH WIND       PRES   REMARKS
SUPERIOR ARPT  CLOUDY    33  32  94 NE8       30.07F WCI  27
ASHLAND        CLOUDY    31  29  92 CALM      30.07F
HAYWARD        CLOUDY    34  28  79 N6        30.02F WCI  29
SIREN          CLOUDY    33  29  85 CALM      30.01F
CUMBERLAND     CLOUDY    36  28  75 NE6       29.98F WCI  31
RICE LAKE      CLOUDY    38  30  73 CALM      30.00F
CHETEK         CLOUDY    37  29  74 NE3       29.99F
LADYSMITH      CLOUDY    37  28  70 E6        30.02S WCI  33
EAU CLAIRE     CLOUDY    37  34  89 NE12      29.96F WCI  29
MENOMONIE      CLOUDY    38  34  87 NE8       29.98S WCI  32
NEW RICHMOND   CLOUDY    37  33  84 NE10      29.97F WCI  30
OSCEOLA        CLOUDY    39  34  80 NE8       30.00F WCI  34
$$

WIZ003>005-009-010-017-018-301200-
NORTH CENTRAL WISCONSIN

CITY           SKY/WX    TMP DP  RH WIND       PRES   REMARKS
MANITOWISH WTR CLOUDY    33  25  72 NE5       30.02F WCI  28
ARBOR VITAE    CLOUDY    37  28  72 E5        30.02F WCI  33
WOODRUFF       CLOUDY    37  28  72 E5        30.02F WCI  33
RHINELANDER    CLOUDY    34  26  72 E8        30.02F WCI  27
EAGLE RIVER    CLOUDY    32  24  73 E5        30.04F WCI  27
LAND O LAKES   CLOUDY    33  26  76 E3        30.07S
PHILLIPS       CLOUDY    35  27  75 NE5       30.00F WCI  30
TOMAHAWK       CLOUDY    33  26  75 NE5       30.02F WCI  29
MEDFORD        CLOUDY    32  31  94 E12       29.96F WCI  23
MERRILL        CLOUDY    33  31  92 E7        30.00F WCI  27
$$

WIZ029-030-035-036-043>047-301200-
CENTRAL WISCONSIN

CITY           SKY/WX    TMP DP  RH WIND       PRES   REMARKS
WAUSAU         FLURRIES  33  31  92 E9        29.97F WCI  25
MOSINEE        LGT SNOW  32  32 100 E14       29.99F WCI  22
MARSHFIELD     CLOUDY    34  31  88 E16       29.94F WCI  24
STEVENS POINT  MIX PCPN  32  32 100 NE10      29.97F WCI  23
WAUPACA        LGT RAIN  37  35  93 NE9       30.00F WCI  30
WAUTOMA        MIX PCPN  35  33  92 NE14G22   29.97F WCI  26
WISC RAPIDS    CLOUDY    35  35 100 E12G18    29.96F WCI  27
CAMP DOUGLAS   CLOUDY    36  35  95 E16       29.91F WCI  26
$$

WIZ011>013-019>022-031-037>040-048>050-301200-
NORTHEAST WISCONSIN

CITY           SKY/WX    TMP DP  RH WIND       PRES   REMARKS
ANTIGO         LGT SNOW  31  31  97 E10G16    30.01F WCI  23
SHAWANO        LGT RAIN  36  33  90 NE9       30.05F WCI  29
OCONTO         CLOUDY    36  30  80 NE7       30.06F WCI  30
STURGEON BAY   LGT RAIN  35  31  85 NE6       30.05F WCI  30
GREEN BAY      MIX PCPN  36  35  96 NE12      30.04S WCI  28
MANITOWOC      MIX PCPN  35  31  85 NE7       30.02F WCI  29
APPLETON       LGT RAIN  36  34  93 NE12G17   29.99F WCI  27
CLINTONVILLE   MIX PCPN  32  32 100 NE9       30.03S WCI  24
OSHKOSH        MIX PCPN  35  31  85 E12       29.98F WCI  27
$$

WIZ032>034-041-042-053>061-301200-
SOUTHWEST WISCONSIN

CITY           SKY/WX    TMP DP  RH WIND       PRES   REMARKS
LA CROSSE      CLOUDY    40  36  86 NE9       29.90F WCI  34
SPARTA         CLOUDY    36  35  95 E14G26    29.91F WCI  27
VIROQUA        CLOUDY    37  36  98 E21       29.84F WCI  26
BOSCOBEL       LGT RAIN  41  41 100 E10G18    29.84F
PRAIRIE DU CHI CLOUDY    38  37  97 NE7       29.82F WCI  33
PLATTEVILLE    CLOUDY    40  40  99 E21G26    29.80R WCI  30
$$

WIZ056-057-062-063-064-067-068-301200-
SOUTH CENTRAL WISCONSIN

CITY           SKY/WX    TMP DP  RH WIND       PRES   REMARKS
REEDSBURG      CLOUDY    37  37 100 E12G21    29.88F WCI  29
BARABOO/DELLS  CLOUDY    36  35  95 E15G21    29.89F WCI  27
LONE ROCK      CLOUDY    41  36  82 E17       29.85F
MINERAL POINT  CLOUDY    39  39 100 E21G28    29.79F WCI  29
MADISON        LGT RAIN  38  35  89 E17G28    29.87F WCI  28
MIDDLETON      CLOUDY    39  39 100 E13       29.87S WCI  32
WATERTOWN      LGT RAIN  37  37 100 E16G22    29.89F WCI  27
MONROE         DRIZZLE   37  36  93 E16G25    29.81F WCI  28
JANESVILLE     DRIZZLE   39  39 100 E17G23    29.83F WCI  30
$$

WIZ051-052-058>065-066-070>072-301200-
SOUTHEAST WISCONSIN

CITY           SKY/WX    TMP DP  RH WIND       PRES   REMARKS
MILWAUKEE      LGT RAIN  38  34  85 E21       29.93S WCI  28
WAUKESHA       LGT RAIN  34  34 100 E17G30    29.91F WCI  23
MILWAUKEE/TIMM RAIN      36  32  87 E12G17    29.94S WCI  27
RACINE         RAIN      37  35  92 E16       29.93F WCI  28
KENOSHA        RAIN      38  36  92 E18       29.89F FOG     WCI  28
FOND DU LAC    LGT RAIN  36  30  79 E13       29.98S WCI  27
SHEBOYGAN      FLURRIES  34  30  85 E16       29.98F WCI  24
WEST BEND      LGT RAIN  34  34 100 NE7G18    29.96R WCI  28
JUNEAU         DRIZZLE   35  33  94 NE10G18   29.93F WCI  27
$$

LSZ147-162-301200-
LAKE SUPERIOR

STATION/POSITION TIME  TEMP    WIND        PRES    WAVE
                       AIR SEA DIR/SP/G            HT/PER
                 (UTC) (F)     (DEG/KT/KT) (MB)    (FT/S)
DEVILS ISLAND    1100   34      80/  7/  7 1019.3F
PORT WING        1040   34      30/  6/  7 1018.6F
SAXON HARBOR     1030   31     180/  3/  4 1018.3F
$$

LMZ867-665-643>646-301200-
LAKE MICHIGAN

STATION/POSITION TIME  TEMP    WIND        PRES    WAVE
                       AIR SEA DIR/SP/G            HT/PER
                 (UTC) (F)     (DEG/KT/KT) (MB)    (FT/S)
CHAMBERS ISLAND  1040   35      70/  9/ 12 1019.0S
NORTHPORT PIER   1040   35      90/  9/ 11 1020.0R
SISTER BAY       1021   36     120/ 12/ 17   N/A
KEWAUNEE LAKESHO 1048   35      80/  9/ 12 1017.4F
SHEBOYGAN LAKESH 1100   36      60/ 23/ 26 1015.4F
PORT WASHINGTON  1040   38      70/ 17/ 21 1015.2F
MILWAUKEE LAKESH 1050   37      70/ 16/ 20   N/A
KENOSHA   LAKESH 1100   38      80/ 17/ 21 1012.9
$$

TC  - TEMPERATURE IN CELSIUS
VSB - VISIBILITY IN STATUTE MILES
WCI - WIND CHILL INDEX
HX  - HEAT INDEX





USA.gov is the U.S. government's official web portal to all federal, state and local government web resources and services.